Retour au catalogue

RADUGA 12

ActifMilitaireGEO
NORAD 13974·PAYLOAD·🇷🇺 Russia

Lancé Apr 8, 1983 depuis Baikonur Cosmodrome

Loading…

TLE

FraisSource: Space-Track

Époque: Sep 14, 2026, 03:51 UTC

1 13974U 83028A   26257.16041713 -.00000018  00000-0  00000-0 0  9990
2 13974   8.0179 305.7150 0001557 320.9345 209.6800  1.00278443170277

Suivez RADUGA 12 en temps réel avec AllMySat

Download on the App Store